Cosmos 1005 Rocket - Orbit

View from above orbital plane
View from above orbital plane
View from above satellite
View from above satellite

Ground track
Ground track

The orbit data is extracted from the following two-line orbital elements,

1 10861U 78045B   13170.62591220  .00066068  00000-0  46253-3 0  3149
2 10861 081.1901 101.8892 0005423 221.8365 138.3012 15.74160313931561
Epoch (UTC): 19 June 2013 15:01:18
Eccentricity: 0.0005423
inclination: 81.1901°
perigee height: 343 km
apogee height: 350 km
right ascension of ascending node: 101.8892°
argument of perigee: 221.8365°
revolutions per day: 15.74160313
mean anomaly at epoch: 138.3012°
orbit number at epoch: 93156

The dashed part of the orbit path shows where the satellite is in the earth's shadow,  

Developed and maintained by Chris Peat, Heavens-Above GmbH. Please read the updated FAQ before sending e-mail. Imprint. DLR